Location: Gleizolles
(44.4833°N, 6.7667°E)
Time: 21:37:46
(UTC+00:00)

Explorer 7 - Pass Details

Date: 23 June 2024
Orbit: 465 x 619 km, 50.3° (Epoch: 19 July)

Event Time Altitude Azimuth Distance (km) Brightness Sun altitude
Rises 15:06:04 0° 297° (WNW) 2,554 10.8 42.5°
Reaches altitude 10° 15:08:16 10° 298° (WNW) 1,654 10.1 42.1°
Maximum altitude 15:12:00 86° 29° (NNE) 476 7.2 41.4°
Drops below altitude 10° 15:15:38 10° 117° (ESE) 1,613 8.9 40.8°
Sets 15:17:45 0° 117° (ESE) 2,485 9.8 40.4°
